Home > Weather > Beersheba > Past weeks

Flag for Israel Past Weather in Beersheba, Israel — Yesterday and Last 2 Weeks

Now
77 °F

Passing clouds.


Feels Like: 78 °F
Forecast: 72 / 88 °F
Wind: 5 mph from South

Location: Ben Gurion International Airport

Current Time: Jun 27, 2016 at 7:04:42 AM

Latest Report: Jun 27, 2016 at 6:20 AM


Visibility: 5 mi

Pressure: 29.80 "Hg

Humidity: 89%

Dew Point: 73 °F

Location of BeershebaLocation

Past Weather in Beersheba — Graph

°F

Beersheba Temperature Yesterday

Maximum temperature yesterday: 91 °F (at 1:50 PM)
Minimum temperature yesterday: 77 °F (at 1:20 AM)
Average temperature yesterday: 83 °F

High & Low Weather Summary for the Past Weeks

 TemperatureHumidityPressure
High97 °F (Jun 14, 3:50 PM)94% (Jun 20, 4:20 AM)30.01 "Hg (Jun 20, 4:20 AM)
Low66 °F (Jun 13, 6:20 AM)20% (Jun 14, 4:50 PM)29.68 "Hg (Jun 24, 3:20 PM)
Average81 °F62%29.78 "Hg
* Reported Jun 12 5:20 AM — Jun 27 5:50 AM, Beersheba, Weather by CustomWeather, © 2016

Note: Actual official high and low records may vary slightly from our data, if they occured in-between our weather recording intervals... More about our weather records

Advertising

Beersheba Weather History for the Previous 24 Hours

Scroll right to see more
 ConditionsComfort  
Time TempWeatherWind HumidityBarometerVisibility
5:50 AM
Mon, Jun 27
77 °FPassing clouds.5 mph89%29.80 "Hg5 mi
5:20 AM77 °FPassing clouds.5 mph89%29.80 "HgN/A
4:50 AM77 °FPassing clouds.5 mph89%29.80 "HgN/A
4:20 AM77 °FPassing clouds.2 mph89%29.80 "HgN/A
3:50 AM77 °FPassing clouds.3 mph89%29.80 "HgN/A
3:20 AM77 °FPassing clouds.3 mph89%29.80 "HgN/A
2:50 AM77 °FPassing clouds.3 mph89%29.80 "HgN/A
2:20 AM77 °FPassing clouds.3 mph89%29.80 "HgN/A
1:50 AM79 °FClear.2 mph84%29.80 "Hg10 mi
1:20 AM79 °FClear.2 mph84%29.80 "Hg10 mi
12:50 AM81 °FClear.3 mph79%29.80 "Hg10 mi
12:20 AM79 °FClear.2 mph84%29.80 "Hg10 mi
11:50 PM
Sun, Jun 26
79 °FClear.2 mph84%29.83 "Hg10 mi
11:20 PM81 °FClear.5 mph79%29.83 "Hg10 mi
10:50 PM81 °FClear.5 mph79%29.83 "Hg10 mi
10:20 PM81 °FClear.6 mph79%29.83 "Hg10 mi
9:50 PM81 °FClear.6 mph79%29.80 "Hg10 mi
9:20 PM82 °FClear.5 mph74%29.80 "Hg10 mi
8:50 PM82 °FClear.5 mph74%29.80 "Hg10 mi
8:20 PM82 °FPassing clouds.6 mph74%29.80 "HgN/A
7:50 PM82 °FPassing clouds.8 mph74%29.80 "HgN/A
7:20 PM84 °FPassing clouds.8 mph70%29.80 "HgN/A
6:50 PM84 °FSunny.9 mph70%29.80 "Hg10 mi
6:20 PM86 °FSunny.9 mph66%29.80 "Hg10 mi
5:50 PM86 °FSunny.10 mph66%29.80 "Hg10 mi
5:20 PM88 °FSunny.10 mph55%29.80 "Hg10 mi
4:50 PM88 °FSunny.10 mph62%29.80 "Hg10 mi
4:20 PM90 °FSunny.10 mph55%29.80 "Hg10 mi
3:50 PM88 °FSunny.9 mph59%29.80 "Hg10 mi
3:20 PM88 °FSunny.13 mph62%29.80 "Hg10 mi
2:50 PM88 °FSunny.12 mph62%29.80 "Hg10 mi
2:20 PM90 °FPassing clouds.12 mph55%29.83 "HgN/A
1:50 PM91 °FSunny.12 mph49%29.83 "Hg10 mi
1:20 PM90 °FPassing clouds.10 mph55%29.83 "HgN/A
12:50 PM90 °FSunny.9 mph55%29.83 "Hg10 mi
12:20 PM90 °FPassing clouds.10 mph55%29.83 "HgN/A
11:50 AM88 °FSunny.10 mph59%29.83 "Hg10 mi
11:20 AM90 °FPassing clouds.8 mph59%29.83 "HgN/A
10:50 AM90 °FPassing clouds.5 mph55%29.83 "HgN/A
10:20 AM88 °FSunny.3 mph59%29.83 "Hg10 mi
9:50 AM86 °FSunny.2 mph62%29.83 "Hg10 mi
9:20 AM82 °FPassing clouds.6 mph70%29.83 "HgN/A
8:50 AM82 °FScattered clouds.3 mph70%29.83 "HgN/A
8:20 AM81 °FScattered clouds.6 mph74%29.83 "HgN/A
7:50 AM79 °FScattered clouds.7 mph79%29.83 "Hg6 mi
7:20 AM79 °FScattered clouds.9 mph79%29.83 "Hg5 mi
Weather by CustomWeather, © 2016

See weather overviewHow to use our weather pages